Regional Weather Roundup
Issued by NWS Cleveland, OH

Home | Current Version | Previous Version | Text Only | Print | Product List | Glossary Off
Versions: 1 2 3 4 5 6 7 8 9 10 11 12 13 14 15 16 17 18 19 20 21 22 23 24 25 26 27 28 29 30 31 32 33 34 35 36 37 38 39 40 41 42 43 44 45 46 47 48 49 50

000
ASUS41 KCLE 282210
RWRCLE
OHIO REGIONAL WEATHER ROUNDUP
NATIONAL WEATHER SERVICE CLEVELAND, OH
600 PM EDT TUE JUL 28 2015

NOTE: "FAIR" INDICATES FEW OR NO CLOUDS BELOW 12,000 FEET WITH NO
SIGNIFICANT WEATHER AND/OR OBSTRUCTIONS TO VISIBILITY.

OHZ001>008-015>018-024>027-034-035-043-044-282300-
   NORTHWEST OHIO

CITY           SKY/WX    TMP DP  RH WIND       PRES   REMARKS
DEFIANCE       PTSUNNY   89  60  37 S5        29.96F
FINDLAY        MOSUNNY   89  59  36 E6        29.96F
TOLEDO EXPRESS PTSUNNY   87  65  47 E7        29.98R
TOLEDO EXEC    PTSUNNY   86  62  44 NE9       29.99S
LIMA           SUNNY     88  66  48 CALM      29.98S HX  90
$$

OHZ009>014-019>023-028>033-038-089-282300-
   NORTHEAST OHIO

CITY           SKY/WX    TMP DP  RH WIND       PRES   REMARKS
CLE-HOPKINS    PTSUNNY   85  64  49 NE14      30.01S
CLE-LAKEFRONT  MOSUNNY   81  71  71 NE10      29.98F
CUY CO. ARPT   PTSUNNY   88  64  45 NE13      30.01S
LORAIN-ELYRIA  MOSUNNY   85  64  49 NE9       30.00S
ASHTABULA      SUNNY     86  61  42 N7        30.01F
AKRON-CANTON   MOSUNNY   88  60  38 NE6       30.01S
WOOSTER        MOSUNNY   88  63  43 NE6       30.00F
MANSFIELD      SUNNY     87  60  40 NE6       30.01F
YOUNGSTOWN     MOSUNNY   88  59  37 NE5       30.01F
$$

OHZ042-051>053-060>062-070>072-077>081-282300-
  SOUTHWEST OHIO

CITY           SKY/WX    TMP DP  RH WIND       PRES   REMARKS
CINC-COVINGTON MOSUNNY   91  71  51 NW8       29.96S HX  97
CINC-LUNKEN    MOSUNNY   89  72  56 CALM      29.94S HX  96
HAMILTON       SUNNY     90  72  55 N5        29.95S HX  97
DAYTON         PTSUNNY   87  70  56 VRB5      29.98F HX  92
WRIGHT-PAT AFB SUNNY     89  71  56 N6        29.97S HX  95
DAYTON GENERAL SUNNY     88  70  55 NE7       29.97S HX  93
WILMINGTON     MOSUNNY   87  71  58 NE5       29.97S HX  93
$$

OHZ036-037-039>041-045>050-054>059-063>069-073>076-082>088-282300-
  CENTRAL AND SOUTHEAST OHIO

CITY           SKY/WX    TMP DP  RH WIND       PRES   REMARKS
COLUMBUS       PTSUNNY   86  68  54 E6        29.96F
OSU AIRPORT    PTSUNNY   86  68  54 NE6       29.97F
BOLTON FIELD   CLOUDY    73  72  94 SE7       29.98F
RICKENBACK AFB PTSUNNY   85  70  61 W10       29.96S
NEWARK         PTSUNNY   87  69  54 MISG      29.96F HX  91
MARION         SUNNY     89  64  43 NE5       29.98F HX  90
LANCASTER      SUNNY     87  71  58 CALM      29.96F HX  93
ZANESVILLE     SUNNY     88  67  49 NE7       29.97F HX  91
NEW PHILLY     SUNNY     87  70  56 N3        29.98F HX  92
$$


USA.gov is the U.S. government's official web portal to all federal, state and local government web resources and services.